Saginaw, MI

6:07 AM EDT on March 25, 2017 (GMT -0400)
MBS International

Weather History for KMBS - February, 2013

Change the Weather History Date:

Sunday, February 10, 2013

  Actual Average Record
Temperature  
Mean Temperature 22 °F 23 °F  
Max Temperature 39 °F 30 °F 57 °F (2009)
Min Temperature 6 °F 16 °F -4 °F (2003)
Degree Days  
Heating Degree Days 44    
Month to date heating degree days  
Since 1 July heating degree days  
Cooling Degree Days 0    
Month to date cooling degree days  
Year to date cooling degree days  
Moisture  
Dew Point 14 °F    
Average Humidity 81    
Maximum Humidity 92    
Minimum Humidity 59    
Precipitation  
Precipitation 0.16 in 0.05 in 0.21 in (2000)
Month to date precipitation 0.46  
Year to date precipitation 2.17  
Snow  
Snow 0.00 in - - ()
Month to date snowfall  
Since 1 July snowfall  
Snow Depth -    
Sea Level Pressure  
Sea Level Pressure 30.05 in    
Wind  
Wind Speed 5 mph (East)    
Max Wind Speed 17 mph    
Max Gust Speed 25 mph    
Visibility 4 miles    
Events Fog , Rain    
T = Trace of Precipitation, MM = Missing Value Source: NWS Daily Summary

Daily Weather History Graph

Daily Weather History Graph

Search for Another Location

Airport or City:

Trip Planner

Search our weather history database for the weather conditions in past years. The results will help you decide how hot, cold, wet, or windy it might be!

Date:

Astronomy

Feb. 10, 2013 Rise Set
Actual Time 7:41 AM EST 6:00 PM EST
Civil Twilight 7:11 AM EST 6:30 PM EST
Nautical Twilight 6:37 AM EST 7:03 PM EST
Astronomical Twilight 6:04 AM EST 7:37 PM EST
Moon 7:28 AM EST (2/10) 6:53 PM EST (2/10)
Length of Visible Light 11h 18m
Length of Day
10h 19m
New Moon, 0% of the Moon is Illuminated
Feb 10
New Moon
Feb 17
First Quarter
Feb 25
Full
Mar 4
Last Quarter
Mar 11
New

Hourly Weather History & Observations

Time (EST) Temp. Windchill Dew Point Humidity Pressure Visibility Wind Dir Wind Speed Gust Speed Precip Events Conditions
12:34 AM 8.6 °F - 5.0 °F 85% 30.25 in 2.5 mi Calm Calm - N/A   Clear
12:53 AM 9.0 °F - 6.1 °F 88% 30.29 in 1.0 mi Calm Calm - N/A   Clear
1:07 AM 8.6 °F 2.0 °F 3.2 °F 79% 30.24 in 3.0 mi ENE 3.5 mph - N/A   Clear
1:29 AM 8.6 °F 0.1 °F 3.2 °F 79% 30.22 in 2.0 mi ENE 4.6 mph - N/A   Clear
1:41 AM 6.8 °F -0.1 °F 3.2 °F 85% 30.22 in 3.0 mi ENE 3.5 mph - N/A   Clear
1:53 AM 8.1 °F 1.4 °F 3.9 °F 83% 30.26 in 4.0 mi ENE 3.5 mph - N/A   Clear
2:27 AM 8.6 °F 0.1 °F 5.0 °F 85% 30.21 in 1.8 mi East 4.6 mph - N/A   Clear
2:41 AM 8.6 °F -1.3 °F 6.8 °F 92% 30.21 in 0.8 mi East 5.8 mph - N/A   Clear
2:49 AM 8.6 °F 0.1 °F 3.2 °F 79% 30.22 in 1.8 mi East 4.6 mph - N/A   Haze
2:53 AM 9.0 °F -0.9 °F 3.9 °F 80% 30.25 in 2.5 mi East 5.8 mph - N/A   Haze
3:00 AM 8.6 °F -1.3 °F 5.0 °F 85% 30.21 in 0.8 mi East 5.8 mph - N/A   Clear
3:17 AM 10.4 °F 0.8 °F 6.8 °F 85% 30.21 in 1.2 mi East 5.8 mph - N/A   Clear
3:39 AM 10.4 °F 2.2 °F 6.8 °F 85% 30.20 in 0.5 mi East 4.6 mph - N/A Fog Light Freezing Fog
3:45 AM 10.4 °F 2.2 °F 6.8 °F 85% 30.20 in 0.2 mi East 4.6 mph - N/A Fog Light Freezing Fog
3:53 AM 9.0 °F 2.4 °F 6.1 °F 88% 30.24 in 0.2 mi East 3.5 mph - N/A Fog Light Freezing Fog
4:00 AM 8.6 °F 2.0 °F 5.0 °F 85% 30.19 in 0.2 mi East 3.5 mph - N/A Fog Light Freezing Fog
4:53 AM 7.0 °F 0.1 °F 3.0 °F 84% 30.23 in 0.2 mi East 3.5 mph - N/A Fog Light Freezing Fog
5:08 AM 6.8 °F -0.1 °F 3.2 °F 85% 30.19 in 1.2 mi NE 3.5 mph - N/A   Overcast
5:16 AM 6.8 °F -2.0 °F 1.4 °F 79% 30.18 in 3.0 mi NE 4.6 mph - N/A   Mostly Cloudy
5:31 AM 8.6 °F - 3.2 °F 79% 30.19 in 3.0 mi Calm Calm - N/A   Scattered Clouds
5:53 AM 8.1 °F - 3.9 °F 83% 30.23 in 4.0 mi Calm Calm - N/A   Clear
6:53 AM 6.1 °F -0.9 °F 1.0 °F 80% 30.23 in 5.0 mi NNE 3.5 mph - N/A   Haze
7:53 AM 6.8 °F -0.1 °F 1.4 °F 79% 30.16 in 2.5 mi ENE 3.5 mph - N/A   Clear
8:14 AM 6.8 °F -2.0 °F 1.4 °F 79% 30.15 in 3.0 mi ENE 4.6 mph - N/A   Haze
8:53 AM 9.0 °F 0.6 °F 5.0 °F 84% 30.18 in 5.0 mi NNE 4.6 mph - N/A   Clear
9:53 AM 12.9 °F 0.7 °F 8.1 °F 81% 30.12 in 7.0 mi NE 9.2 mph - N/A   Overcast
10:53 AM 19.0 °F - 14.0 °F 81% 30.13 in 7.0 mi Calm Calm - N/A   Overcast
11:53 AM 25.0 °F - 19.0 °F 78% 30.10 in 7.0 mi Calm Calm - N/A   Overcast
12:53 PM 28.0 °F 20.8 °F 21.0 °F 75% 30.05 in 8.0 mi North 6.9 mph - N/A   Overcast
1:53 PM 30.9 °F 25.2 °F 23.0 °F 72% 30.00 in 9.0 mi NNE 5.8 mph - N/A   Overcast
2:53 PM 35.1 °F 31.0 °F 26.1 °F 70% 29.97 in 10.0 mi East 4.6 mph - N/A   Overcast
3:53 PM 37.0 °F 28.9 °F 24.1 °F 59% 29.93 in 10.0 mi SE 12.7 mph - N/A   Overcast
4:53 PM 36.0 °F 27.1 °F 26.1 °F 67% 29.88 in 10.0 mi ESE 13.8 mph - 0.00 in Rain Light Rain
5:53 PM 36.0 °F 28.0 °F 28.0 °F 73% 29.85 in 10.0 mi ESE 11.5 mph - 0.00 in Rain Light Rain
6:53 PM 35.1 °F 25.5 °F 28.9 °F 78% 29.81 in 5.0 mi SE 15.0 mph - 0.05 in Rain Rain
7:53 PM 36.0 °F 26.7 °F 30.0 °F 79% 29.80 in 8.0 mi SSE 15.0 mph 21.9 mph 0.03 in Rain Light Rain
8:09 PM 35.6 °F 26.6 °F 30.2 °F 81% 29.76 in 5.0 mi SE 13.8 mph - 0.00 in Rain Light Rain
8:15 PM 35.6 °F 25.5 °F 30.2 °F 81% 29.75 in 2.0 mi SSE 17.3 mph - 0.01 in Rain Light Rain
8:49 PM 35.6 °F 25.9 °F 30.2 °F 81% 29.71 in 5.0 mi SE 16.1 mph - 0.03 in Rain Light Rain
8:50 PM 36.0 °F 26.0 °F 30.9 °F 82% 29.74 in 5.0 mi SE 17.3 mph - 0.04 in Rain Light Rain
9:17 PM 35.6 °F 25.9 °F 32.0 °F 87% 29.69 in 6.0 mi SE 16.1 mph - 0.02 in Rain Light Rain
9:36 PM 37.4 °F 28.2 °F 32.0 °F 81% 29.68 in 7.0 mi SSE 16.1 mph 24.2 mph 0.03 in Rain Light Rain
9:53 PM 37.0 °F 28.5 °F 32.0 °F 82% 29.70 in 7.0 mi SSE 13.8 mph - 0.03 in Rain Light Rain
10:53 PM 37.9 °F 28.9 °F 34.0 °F 86% 29.67 in 6.0 mi South 16.1 mph 24.2 mph 0.01 in Rain Light Rain
11:53 PM 39.0 °F 31.0 °F 34.0 °F 82% 29.64 in 10.0 mi South 13.8 mph 25.3 mph 0.00 in   Overcast